Regional Weather Roundup
Issued by NWS

Home | Current Version | Previous Version | Text Only | Print | Product List | Glossary On
Versions: 1 2 3 4 5 6 7 8 9 10 11 12 13 14 15 16 17 18 19 20 21 22 23 24 25 26 27 28 29 30 31 32 33 34 35 36 37 38 39 40 41 42 43 44 45 46 47 48 49 50
000
ASUS43 KLSX 030707
RWRMO

WEATHER SUMMARY FOR MISSOURI
NATIONAL WEATHER SERVICE SPRINGFIELD MO
200 AM CDT WED JUN 03 2015

NOTE: "FAIR" INDICATES FEW OR NO CLOUDS BELOW 12,000 FEET WITH NO
       SIGNIFICANT WEATHER AND/OR OBSTRUCTIONS TO VISIBILITY.
       CURRENT SKY AND/OR WEATHER CONDITIONS ARE NOT AVAILABLE FOR
       CHILLICOTHE AND FARMINGTON.

MOZ001>031-035>038-043-044-053-054-030800-
...NORTHERN AND WESTERN MISSOURI...

CITY           SKY/WX    TMP DP  RH WIND       PRES   REMARKS
KANSAS CTY INT MOCLDY    65  59  81 SE10      29.95S
KANSAS C DTWN  PTCLDY    68  58  70 S7        29.95S
LEE`S SUMMIT   MOCLDY    64  58  80 SE7       29.97F
ST JOSEPH      MOCLDY    65  59  81 S8        29.94S
CHILLICOTHE      N/A     64  57  78 SE5       30.00R
KIRKSVILLE     MOCLDY    57  56  96 SE5       30.02R

$$
MOZ066>068-077>081-088>096-101>105-030800-
...SOUTHWEST MISSOURI...

CITY           SKY/WX    TMP DP  RH WIND       PRES   REMARKS
SPRINGFIELD    CLEAR     63  58  83 SE10      29.99F
JOPLIN         PTCLDY    67  64  90 SE7       29.96F

$$
MOZ032>034-039>042-045>050-055>058-069>072-030800-
...CENTRAL MISSOURI...

CITY           SKY/WX    TMP DP  RH WIND       PRES   REMARKS
COLUMBIA       PTCLDY    57  55  93 SE6       30.02S
JEFFERSON CITY PTCLDY    58  55  90 E6        30.02S
ROLLA          CLEAR     55  54  96 S6        30.01F
SEDALIA        CLOUDY    62  56  80 SE10      30.00F
WHITEMAN AFB   PTCLDY    62  58  85 S9        29.97F
WARRENSBURG    CLOUDY    63  55  77 SE6       29.98S
OSAGE BEACH    PTCLDY    57  54  88 SE5       30.02S

$$
MOZ051-052-059>065-030800-
...EAST CENTRAL MISSOURI...

CITY           SKY/WX    TMP DP  RH WIND       PRES   REMARKS
ST LOUIS INTL  PTCLDY    62  55  77 S7        30.04F
SPIRIT OF STL  CLEAR     55  54  96 CALM      30.03S
ST CHARLES     CLEAR     59  56  89 SE3       30.03S

$$
MOZ072>076-082>087-097>100-106>115-030800-
...SOUTH CENTRAL AND SOUTHEAST MISSOURI...

CITY           SKY/WX    TMP DP  RH WIND       PRES   REMARKS
CAPE GIRARDEAU CLOUDY    62  58  86 CALM      30.03F
FARMINGTON     CLOUDY    61  55  82 SE6       30.08S
POPLAR BLUFF   PTCLDY    62  56  80 NE5       30.02F
WEST PLAINS    CLEAR     56  53  90 CALM      30.05F

$$



USA.gov is the U.S. government's official web portal to all federal, state and local government web resources and services.